EW5449 Weather Reports


Display with metric or nautical units.
time (UTC)temp
F
wind
direction
speed
MPH
gust
MPH
rain 1hr
in
rain 24hr
in
rain mn
in
humidity
%
barometer
mb
20260904193050 72 207 0.0 2.0 0.39 0.92 0.46 86 1011.8
20260904191550 83 324 8.0 23.0 0.03 0.56 0.10 58 1013.3
20260904190048 91 340 0.0 2.0 0.00 0.53 0.07 62 1011.0
20260904184552 92 28 0.0 3.0 0.00 0.53 0.07 59 1011.3
20260904183044 91 81 0.0 2.0 0.00 0.53 0.07 60 1011.4
20260904181551 92 115 0.0 2.0 0.00 0.53 0.07 58 1012.1
20260904180043 91 198 0.0 2.0 0.00 0.53 0.07 56 1012.2
20260904174602 91 238 0.0 2.0 0.00 0.53 0.07 56 1012.2
20260904173037 91 185 0.0 2.0 0.00 0.53 0.07 55 1012.5
20260904171535 91 350 0.0 2.0 0.00 0.53 0.07 57 1012.6
20260904170030 90 347 1.0 5.0 0.00 0.53 0.07 58 1012.8
20260904164530 89 203 0.0 2.0 0.00 0.53 0.07 59 1013.1
20260904163027 88 213 0.0 2.0 0.00 0.53 0.07 58 1013.2
20260904161527 88 344 0.0 3.0 0.00 0.53 0.07 59 1013.5
20260904160025 88 325 0.0 2.0 0.00 0.53 0.07 62 1013.4
20260904154522 87 9 0.0 2.0 0.00 0.53 0.07 62 1013.5
20260904153028 86 346 0.0 2.0 0.00 0.53 0.07 63 1013.6
20260904151516 85 345 0.0 2.0 0.00 0.53 0.07 64 1013.6
20260904150014 84 355 0.0 2.0 0.00 0.53 0.07 67 1013.6
20260904144511 83 346 0.0 2.0 0.00 0.53 0.07 67 1013.9
20260904143008 82 338 0.0 4.0 0.00 0.53 0.07 69 1014.0
20260904141503 81 329 0.0 2.0 0.00 0.53 0.07 72 1014.1
20260904140059 79 220 0.0 2.0 0.00 0.53 0.07 74 1014.0
20260904134555 77 221 0.0 2.0 0.00 0.53 0.07 78 1014.1
20260904133102 75 84 0.0 0.0 0.00 0.53 0.07 88 1014.1
20260904131546 73 83 0.0 2.0 0.00 0.53 0.07 91 1014.0
20260904130043 72 82 0.0 2.0 0.00 0.53 0.07 93 1014.0
20260904124545 71 82 0.0 2.0 0.00 0.53 0.07 93 1014.3
20260904123103 71 81 0.0 2.0 0.00 0.53 0.07 94 1014.3
20260904121538 71 82 0.0 2.0 0.00 0.53 0.07 95 1014.2
20260904120039 70 83 0.0 2.0 0.00 0.53 0.07 95 1013.9
20260904114537 69 82 0.0 2.0 0.00 0.53 0.07 95 1013.6
20260904113047 69 29 0.0 1.0 0.00 0.53 0.07 94 1013.7
20260904111535 69 29 0.0 2.0 0.00 0.53 0.07 95 1013.9
20260904110039 69 344 0.0 2.0 0.00 0.53 0.07 94 1013.6
20260904104533 69 344 0.0 2.0 0.00 0.53 0.07 94 1013.6
20260904103034 68 342 0.0 0.0 0.00 0.53 0.07 94 1013.3
20260904101532 68 342 0.0 3.0 0.00 0.53 0.07 94 1013.7
20260904100035 68 338 0.0 3.0 0.00 0.53 0.07 94 1013.7
20260904094531 68 350 0.0 2.0 0.00 0.53 0.07 94 1013.2
20260904093041 68 184 0.0 0.0 0.00 0.53 0.07 95 1012.6
20260904091530 68 184 0.0 2.0 0.00 0.53 0.07 94 1012.6
20260904090030 68 184 0.0 2.0 0.00 0.53 0.07 94 1012.5
20260904084529 68 184 0.0 0.0 0.00 0.53 0.07 94 1012.6
20260904083028 68 184 0.0 2.0 0.00 0.53 0.07 94 1012.5
20260904081527 68 170 0.0 2.0 0.00 0.53 0.07 94 1012.5
20260904080027 68 165 0.0 2.0 0.00 0.53 0.07 94 1012.7
20260904074525 68 165 0.0 0.0 0.00 0.53 0.07 94 1012.7
20260904073025 68 165 0.0 2.0 0.00 0.53 0.07 94 1012.4
20260904071524 68 169 0.0 2.0 0.00 0.53 0.07 94 1012.6
20260904070037 69 169 0.0 0.0 0.00 0.53 0.07 93 1012.5
20260904064526 69 169 0.0 0.0 0.00 0.53 0.07 94 1012.6
20260904063021 69 169 0.0 2.0 0.00 0.53 0.07 93 1012.3
20260904061520 69 169 0.0 2.0 0.00 0.53 0.07 93 1012.2
20260904060021 69 175 0.0 2.0 0.00 0.53 0.07 93 1012.4
20260904054529 69 184 0.0 2.0 0.01 0.53 0.07 93 1012.7
20260904053014 70 177 0.0 2.0 0.03 0.53 0.07 93 1013.0
20260904051513 70 175 0.0 2.0 0.06 0.53 0.07 92 1013.0
20260904050015 70 150 0.0 2.0 0.07 0.53 0.07 93 1013.6
20260904044512 70 126 0.0 2.0 0.15 0.52 0.06 92 1013.8
20260904043012 70 168 0.0 2.0 0.50 0.50 0.04 92 1014.7
20260904041503 70 201 0.0 3.0 0.47 0.47 0.01 91 1015.3
20260904040100 71 178 0.0 2.0 0.46 0.46 0.00 90 1015.4
20260904034600 71 182 1.0 4.0 0.37 0.37 0.37 88 1016.6
20260904033056 74 329 0.0 8.0 0.00 0.00 0.00 79 1015.6
20260904031555 77 335 1.0 8.0 0.00 0.00 0.00 71 1015.8
20260904030058 80 261 1.0 6.0 0.00 0.00 0.00 62 1015.6
20260904024559 82 245 2.0 8.0 0.00 0.00 0.00 63 1014.8
20260904023058 82 259 0.0 2.0 0.00 0.00 0.00 73 1013.6
20260904021555 81 194 0.0 2.0 0.00 0.00 0.00 74 1013.4
20260904020052 81 190 0.0 0.0 0.00 0.00 0.00 79 1013.6
20260904014552 82 190 0.0 0.0 0.00 0.00 0.00 76 1013.5
20260904013051 82 190 0.0 0.0 0.00 0.00 0.00 74 1013.2
20260904011607 83 190 0.0 0.0 0.00 0.00 0.00 73 1013.3
20260904004549 84 190 0.0 0.0 0.00 0.00 0.00 70 1013.0
20260904003049 85 190 0.0 0.0 0.00 0.00 0.00 67 1013.1
20260904001548 85 190 0.0 0.0 0.00 0.00 0.00 66 1013.2
20260904000056 86 190 0.0 0.0 0.00 0.00 0.00 63 1013.4
20260903234548 87 190 0.0 2.0 0.00 0.00 0.00 63 1013.6
20260903233048 87 168 0.0 0.0 0.00 0.00 0.00 64 1013.4
20260903231549 88 168 0.0 2.0 0.00 0.00 0.00 65 1012.8
20260903230048 89 174 0.0 2.0 0.00 0.00 0.00 63 1012.7
20260903224548 90 161 0.0 2.0 0.00 0.00 0.00 62 1012.6
20260903223045 91 184 0.0 2.0 0.00 0.00 0.00 60 1012.6
20260903221545 93 201 0.0 2.0 0.00 0.00 0.00 57 1012.4
20260903220043 94 190 0.0 3.0 0.00 0.00 0.00 54 1012.2
20260903214544 94 210 0.0 3.0 0.00 0.00 0.00 53 1012.2
20260903213052 93 178 0.0 3.0 0.00 0.00 0.00 54 1012.2
20260903211543 93 197 0.0 4.0 0.00 0.00 0.00 53 1012.4
20260903210038 93 138 0.0 4.0 0.00 0.00 0.00 54 1012.6
20260903204536 93 190 0.0 3.0 0.00 0.00 0.00 54 1012.5
20260903203055 93 157 1.0 4.0 0.00 0.00 0.00 54 1012.7
20260903201536 92 193 0.0 3.0 0.00 0.00 0.00 54 1013.0
20260903200028 92 204 0.0 3.0 0.00 0.00 0.00 56 1013.2
20260903194525 92 188 1.0 4.0 0.00 0.00 0.00 57 1013.3